Regional Weather Roundup
Issued by NWS

Home | Current Version | Previous Version | Text Only | Print | Product List | Glossary Off
Versions: 1 2 3 4 5 6 7 8 9 10 11 12 13 14 15 16 17 18 19 20 21 22 23 24 25 26 27 28 29 30 31 32 33 34 35 36 37 38 39 40 41 42 43 44 45 46 47 48 49 50

000
ASUS43 KOAX 250010
RWRNE

WEATHER ROUNDUP FOR NEBRASKA
NATIONAL WEATHER SERVICE OMAHA NE
700 PM CDT SUN JUL 24 2016

NOTES: SATELLITE DATA IS BEING USED TO AUGMENT CLOUD COVER ABOVE
       12000 FEET.
       "FAIR" INDICATES FEW OR NO CLOUDS BELOW 12,000 FEET WITH NO
       SIGNIFICANT WEATHER AND/OR OBSTRUCTIONS TO VISIBILITY.

  * THESE STATIONS DO NOT REPORT WEATHER SUCH AS RAIN...SNOW OR FOG.

NEZ001>004-019>022-054>056-250100-
NEBRASKA PANHANDLE

CITY           SKY/WX    TMP DP  RH WIND       PRES   REMARKS
SCOTTSBLUFF    CLOUDY    81  54  39 E20       30.10R
6HR MIN TEMP:  77; 6HR MAX TEMP:  87; 6HR PCP: TRACE;

ALLIANCE       CLOUDY    80  50  34 E17       30.12F
6HR MIN TEMP:  76; 6HR MAX TEMP:  83;

CHADRON        SUNNY     88  48  25 S17       30.06F
6HR MIN TEMP:  83; 6HR MAX TEMP:  90;

SIDNEY         LGT RAIN  71  60  68 S21G30    30.20S
6HR MIN TEMP:  70; 6HR MAX TEMP:  88; 6HR PCP: TRACE;

$$

NEZ057>060-069>072-079>082-250100-
SOUTHWEST NEBRASKA

CITY           SKY/WX    TMP DP  RH WIND       PRES   REMARKS
NORTH PLATTE   SUNNY     82  63  52 E9        30.09R
6HR MIN TEMP:  80; 6HR MAX TEMP:  85;

IMPERIAL       CLOUDY    85  55  35 E13       30.10R
6HR MIN TEMP:  83; 6HR MAX TEMP:  89;

LEXINGTON      SUNNY     83  59  43 E9        30.07S
MCCOOK         SUNNY     85  58  39 E17       30.05R
6HR MIN TEMP:  85; 6HR MAX TEMP:  90;

OGALLALA       MOSUNNY   82  55  39 E8        30.13S
$$

NEZ005>010-023>029-035>040-094-250100-
NORTH CENTRAL NEBRASKA

CITY           SKY/WX    TMP DP  RH WIND       PRES   REMARKS
VALENTINE      MOSUNNY   87  48  25 SE9       30.08S
6HR MIN TEMP:  80; 6HR MAX TEMP:  89;

AINSWORTH      CLOUDY    82  60  46 E7        30.09S
BROKEN BOW     SUNNY     80  61  52 E12       30.09S
6HR MIN TEMP:  79; 6HR MAX TEMP:  83;

O`NEILL        SUNNY     81  55  40 SE7       30.07F
ORD            SUNNY     82  60  47 E7        30.06S
6HR MIN TEMP:  81; 6HR MAX TEMP:  85;

THEDFORD       SUNNY     84  55  36 SE9       30.11S
$$

NEZ041-046>049-061>064-073>077-083>087-250100-
SOUTH CENTRAL NEBRASKA

CITY           SKY/WX    TMP DP  RH WIND       PRES   REMARKS
GRAND ISLAND   SUNNY     85  60  42 NE14      30.05S
6HR MIN TEMP:  82; 6HR MAX TEMP:  88;

AURORA         SUNNY     83  65  54 E9        30.05R
HASTINGS       SUNNY     83  63  50 E12       30.05S
6HR MIN TEMP:  81; 6HR MAX TEMP:  86;

HEBRON         SUNNY     82  60  47 E12       30.02S
HOLDREGE       SUNNY     82  60  47 E9        30.06R
KEARNEY *      SUNNY     84  63  48 NE10      30.07S
YORK           SUNNY     82  66  57 E9        30.03S
$$

NEZ011>018-030>034-042>045-250100-
NORTHEAST NEBRASKA

CITY           SKY/WX    TMP DP  RH WIND       PRES   REMARKS
NORFOLK        SUNNY     81  62  52 NE8       30.04F
6HR MIN TEMP:  81; 6HR MAX TEMP:  86;

ALBION         SUNNY     80  63  56 NE7       30.06S
BLAIR          CLOUDY    83  69  63 SE5       30.02F
FREMONT        SUNNY     83  64  52 N6        30.02F
TEKAMAH        MOSUNNY   86  64  47 N9        30.00F
6HR MIN TEMP:  82; 6HR MAX TEMP:  89;

WAYNE          CLOUDY    77  65  65 N5        30.05S
$$

NEZ050>053-065>068-078-088>093-250100-
SOUTHEAST NEBRASKA

CITY           SKY/WX    TMP DP  RH WIND       PRES   REMARKS
LINCOLN        CLOUDY    84  64  50 NE13      30.01F
6HR MIN TEMP:  81; 6HR MAX TEMP:  87;

OMAHA EPPLEY   CLOUDY    84  64  50 E6        30.01S
6HR MIN TEMP:  83; 6HR MAX TEMP:  85;

BEATRICE       PTSUNNY   82  64  54 NE7       30.01F
FALLS CITY     CLOUDY    78  69  73 NE7       29.98F
6HR MIN TEMP:  78; 6HR MAX TEMP:  86; 6HR PCP: TRACE;

NEBRASKA CITY  CLOUDY    76  63  63 NE15      29.97F
PLATTSMOUTH    CLOUDY    79  71  76 CALM      30.02F
$$

NEZ044-045-051>053-067-250100-
OMAHA AREA

CITY           SKY/WX    TMP DP  RH WIND       PRES   REMARKS
OMAHA EPPLEY   CLOUDY    84  64  50 E6        30.01S
6HR MIN TEMP:  83; 6HR MAX TEMP:  85;

BLAIR          CLOUDY    83  69  63 SE5       30.02F
FREMONT        SUNNY     83  64  52 N6        30.02F
MILLARD        CLOUDY    84  64  50 E3        30.00F
OFFUTT AFB     CLOUDY    83  67  60 NE8       30.00F
PLATTSMOUTH    CLOUDY    79  71  76 CALM      30.02F
WAHOO          FAIR      82  67  60 E5        30.01F
$$




USA.gov is the U.S. government's official web portal to all federal, state and local government web resources and services.